Weather History for KCSQ - February, 2013

Change the Weather History Date:

Thursday, February 21, 2013

  Actual Average (KLWD) Record (KLWD)
Temperature  
Mean Temperature 21 °F 30 °F  
Max Temperature 23 °F 40 °F - ()
Min Temperature 19 °F 21 °F - ()
Degree Days  
Heating Degree Days 44 35  
Month to date heating degree days 793  
Since 1 July heating degree days 4485  
Cooling Degree Days 0 0  
Month to date cooling degree days 0  
Year to date cooling degree days 0  
Moisture  
Dew Point 14 °F    
Average Humidity 73    
Maximum Humidity 86    
Minimum Humidity 54    
Precipitation  
Precipitation 0.01 in 0.04 in - ()
Month to date precipitation 0.99  
Sea Level Pressure  
Sea Level Pressure 30.01 in    
Wind  
Wind Speed 16 mph (ENE)    
Max Wind Speed 26 mph    
Max Gust Speed 33 mph    
Visibility 5 miles    
Events Snow    
T = Trace of Precipitation, MM = Missing Value Source: NWS Daily Summary

Daily Weather History Graph

Daily Weather History Graph

Search for Another Location

Airport or City:

Trip Planner

Search our weather history database for the weather conditions in past years. The results will help you decide how hot, cold, wet, or windy it might be!

Date:

Astronomy

Feb. 21, 2013 Rise Set
Actual Time 7:03 AM CST 5:59 PM CST
Civil Twilight 6:35 AM CST 6:27 PM CST
Nautical Twilight 6:03 AM CST 6:59 PM CST
Astronomical Twilight 5:31 AM CST 7:31 PM CST
Moon 2:13 PM CST (2/21) 4:09 AM CST (2/21)
Length of Visible Light 11h 52m
Length of Day
10h 56m
Waxing Gibbous, 84% of the Moon is Illuminated
Feb 21
Waxing Gibbous
Feb 25
Full
Mar 4
Last Quarter
Mar 11
New
Mar 19
First Quarter

Hourly Weather History & Observations

Time (CST) Temp. Windchill Dew Point Humidity Pressure Visibility Wind Dir Wind Speed Gust Speed Precip Events Conditions
12:15 AM 21.2 °F 8.9 °F 6.8 °F 54% 30.24 in 10.0 mi East 12.7 mph - N/A   Overcast
12:35 AM 21.2 °F 9.5 °F 6.8 °F 54% 30.24 in 10.0 mi East 11.5 mph - N/A   Overcast
12:55 AM 21.2 °F 8.9 °F 6.8 °F 54% 30.26 in 10.0 mi East 12.7 mph - N/A   Overcast
1:15 AM 21.2 °F 8.3 °F 6.8 °F 54% 30.25 in 10.0 mi East 13.8 mph - N/A   Overcast
1:35 AM 21.2 °F 7.8 °F 6.8 °F 54% 30.24 in 10.0 mi East 15.0 mph - N/A   Overcast
1:55 AM 21.2 °F 8.9 °F 6.8 °F 54% 30.24 in 10.0 mi East 12.7 mph - N/A   Mostly Cloudy
2:15 AM 19.4 °F 6.6 °F 6.8 °F 58% 30.22 in 10.0 mi East 12.7 mph - N/A   Clear
2:35 AM 19.4 °F 6.6 °F 6.8 °F 58% 30.22 in 10.0 mi East 12.7 mph - N/A   Clear
2:55 AM 19.4 °F 7.2 °F 8.6 °F 63% 30.21 in 10.0 mi East 11.5 mph - N/A   Clear
3:15 AM 19.4 °F 6.0 °F 8.6 °F 63% 30.18 in 10.0 mi East 13.8 mph - N/A   Scattered Clouds
3:35 AM 19.4 °F 5.0 °F 8.6 °F 63% 30.13 in 10.0 mi East 16.1 mph - N/A   Scattered Clouds
3:55 AM 19.4 °F 6.0 °F 8.6 °F 63% 30.17 in 10.0 mi East 13.8 mph - N/A   Scattered Clouds
4:15 AM 19.4 °F 5.5 °F 8.6 °F 63% 30.15 in 10.0 mi East 15.0 mph - N/A   Scattered Clouds
4:35 AM 19.4 °F 6.0 °F 8.6 °F 63% 30.17 in 10.0 mi East 13.8 mph - N/A   Scattered Clouds
4:55 AM 19.4 °F 5.0 °F 10.4 °F 68% 30.14 in 10.0 mi East 16.1 mph 23.0 mph N/A   Scattered Clouds
5:15 AM 19.4 °F 5.0 °F 10.4 °F 68% 30.13 in 10.0 mi East 16.1 mph 21.9 mph N/A   Clear
5:55 AM 19.4 °F 5.0 °F 10.4 °F 68% 30.15 in 10.0 mi East 16.1 mph - N/A   Clear
6:15 AM 19.4 °F 4.5 °F 10.4 °F 68% 30.15 in 10.0 mi East 17.3 mph 21.9 mph N/A   Clear
6:35 AM 19.4 °F 5.5 °F 10.4 °F 68% 30.13 in 10.0 mi East 15.0 mph - N/A   Scattered Clouds
6:55 AM 19.4 °F 4.5 °F 10.4 °F 68% 30.14 in 10.0 mi East 17.3 mph - N/A   Clear
7:15 AM 19.4 °F 5.0 °F 10.4 °F 68% 30.14 in 10.0 mi East 16.1 mph - N/A   Scattered Clouds
7:35 AM 19.4 °F 4.5 °F 10.4 °F 68% 30.12 in 10.0 mi East 17.3 mph - N/A   Mostly Cloudy
7:55 AM 19.4 °F 4.1 °F 10.4 °F 68% 30.13 in 10.0 mi East 18.4 mph 23.0 mph N/A   Mostly Cloudy
8:15 AM 19.4 °F 3.6 °F 10.4 °F 68% 30.13 in 10.0 mi East 19.6 mph 25.3 mph N/A   Overcast
8:35 AM 19.4 °F 4.1 °F 10.4 °F 68% 30.12 in 10.0 mi East 18.4 mph - N/A   Overcast
8:55 AM 21.2 °F 6.4 °F 10.4 °F 63% 30.14 in 10.0 mi East 18.4 mph - N/A   Mostly Cloudy
9:35 AM 21.2 °F 7.3 °F 8.6 °F 58% 30.14 in 10.0 mi East 16.1 mph - N/A   Overcast
9:55 AM 21.2 °F 6.0 °F 8.6 °F 58% 30.12 in 10.0 mi East 19.6 mph 25.3 mph N/A   Mostly Cloudy
10:15 AM 21.2 °F 6.0 °F 8.6 °F 58% 30.11 in 10.0 mi East 19.6 mph 23.0 mph N/A   Overcast
10:35 AM 21.2 °F 5.2 °F 8.6 °F 58% 30.10 in 10.0 mi East 21.9 mph 29.9 mph N/A   Overcast
10:55 AM 21.2 °F 6.0 °F 8.6 °F 58% 30.07 in 10.0 mi East 19.6 mph 29.9 mph N/A   Overcast
11:15 AM 23.0 °F 6.6 °F 8.6 °F 54% 30.04 in 10.0 mi East 25.3 mph 32.2 mph N/A   Overcast
11:35 AM 23.0 °F 7.6 °F 8.6 °F 54% 30.04 in 10.0 mi East 21.9 mph 28.8 mph N/A   Overcast
11:55 AM 23.0 °F 6.3 °F 8.6 °F 54% 30.02 in 10.0 mi East 26.5 mph 31.1 mph N/A   Overcast
12:15 PM 21.2 °F 4.5 °F 12.2 °F 68% 30.00 in 2.0 mi East 24.2 mph 33.4 mph N/A Snow Light Snow
12:35 PM 21.2 °F 5.2 °F 14.0 °F 74% 29.99 in 1.2 mi East 21.9 mph 27.6 mph N/A Snow Light Snow
12:55 PM 21.2 °F 5.2 °F 15.8 °F 80% 29.98 in 0.8 mi East 21.9 mph 29.9 mph N/A Snow Light Snow
1:15 PM 21.2 °F 3.9 °F 15.8 °F 80% 29.96 in 0.8 mi East 26.5 mph 33.4 mph N/A Snow Light Snow
1:35 PM 21.2 °F 5.6 °F 15.8 °F 80% 29.95 in 0.2 mi East 20.7 mph 29.9 mph N/A Snow Snow
1:55 PM 21.2 °F 4.2 °F 17.6 °F 86% 29.92 in 0.2 mi ENE 25.3 mph 33.4 mph N/A Snow Snow
2:15 PM 21.2 °F 4.9 °F 17.6 °F 86% 29.92 in 0.8 mi East 23.0 mph 33.4 mph N/A Snow Light Snow
2:35 PM 21.2 °F 5.6 °F 17.6 °F 86% 29.91 in 0.8 mi East 20.7 mph 31.1 mph N/A Snow Light Snow
2:55 PM 21.2 °F 5.2 °F 17.6 °F 86% 29.91 in 1.0 mi ENE 21.9 mph 29.9 mph N/A Snow Light Snow
3:15 PM 21.2 °F 5.2 °F 15.8 °F 80% 29.90 in 1.2 mi ENE 21.9 mph 26.5 mph N/A Snow Light Snow
3:35 PM 21.2 °F 5.6 °F 17.6 °F 86% 29.89 in 1.0 mi ENE 20.7 mph 27.6 mph N/A Snow Light Snow
3:55 PM 21.2 °F 4.9 °F 17.6 °F 86% 29.89 in 0.8 mi ENE 23.0 mph 28.8 mph N/A Snow Light Snow
4:15 PM 21.2 °F 6.0 °F 17.6 °F 86% 29.88 in 0.8 mi ENE 19.6 mph 26.5 mph N/A Snow Light Snow
4:35 PM 21.2 °F 6.4 °F 17.6 °F 86% 29.88 in 0.8 mi ENE 18.4 mph - N/A Snow Light Snow
4:55 PM 21.2 °F 6.0 °F 17.6 °F 86% 29.87 in 0.5 mi ENE 19.6 mph - N/A Snow Snow
5:15 PM 21.2 °F 8.3 °F 17.6 °F 86% 29.88 in 0.5 mi ENE 13.8 mph - N/A Snow Light Snow
5:35 PM 21.2 °F 7.3 °F 17.6 °F 86% 29.88 in 0.5 mi ENE 16.1 mph - N/A Snow Snow
5:55 PM 21.2 °F 7.3 °F 17.6 °F 86% 29.87 in 1.0 mi ENE 16.1 mph 20.7 mph N/A Snow Light Snow
6:15 PM 21.2 °F 7.8 °F 17.6 °F 86% 29.86 in 0.8 mi ENE 15.0 mph - N/A Snow Snow
6:35 PM 23.0 °F 9.6 °F 17.6 °F 80% 29.85 in 1.0 mi ENE 16.1 mph 20.7 mph N/A Snow Snow
6:55 PM 23.0 °F 9.6 °F 19.4 °F 86% 29.85 in 0.5 mi ENE 16.1 mph - N/A Snow Snow
7:15 PM 23.0 °F 10.6 °F 19.4 °F 86% 29.86 in 0.8 mi ENE 13.8 mph - N/A Snow Snow
7:35 PM 23.0 °F 10.1 °F 19.4 °F 86% 29.85 in 0.5 mi ENE 15.0 mph - N/A Snow Heavy Snow
7:55 PM 23.0 °F 10.1 °F 19.4 °F 86% 29.84 in 0.8 mi ENE 15.0 mph - 0.01 in Snow Snow
8:15 PM 23.0 °F 11.1 °F 19.4 °F 86% 29.84 in 1.2 mi ENE 12.7 mph - N/A Snow Light Snow
8:35 PM 23.0 °F 9.6 °F 19.4 °F 86% 29.83 in 1.5 mi ENE 16.1 mph - N/A Snow Light Snow
8:55 PM 23.0 °F 9.6 °F 19.4 °F 86% 29.82 in 1.0 mi NE 16.1 mph - N/A Snow Snow
9:15 PM 23.0 °F 10.6 °F 19.4 °F 86% 29.83 in 1.0 mi NE 13.8 mph - N/A Snow Snow
9:35 PM 23.0 °F 10.1 °F 19.4 °F 86% 29.82 in 0.8 mi ENE 15.0 mph - N/A Snow Snow
9:55 PM 23.0 °F - 19.4 °F 86% - 0.5 mi North - - N/A Snow Heavy Snow
10:15 PM 23.0 °F 9.2 °F 19.4 °F 86% 29.80 in 0.8 mi ENE 17.3 mph - N/A Snow Snow
10:35 PM 23.0 °F 9.2 °F 19.4 °F 86% 29.79 in 0.8 mi ENE 17.3 mph - N/A Snow Snow
10:55 PM 23.0 °F 10.1 °F 19.4 °F 86% 29.79 in 1.0 mi NE 15.0 mph - N/A Snow Light Snow
11:15 PM 23.0 °F 10.1 °F 19.4 °F 86% 29.79 in 1.5 mi NE 15.0 mph - N/A Snow Light Snow
11:35 PM 23.0 °F 10.1 °F 19.4 °F 86% 29.78 in 2.5 mi NE 15.0 mph - N/A Snow Light Snow
11:55 PM 23.0 °F 10.6 °F 19.4 °F 86% 29.78 in 5.0 mi NE 13.8 mph - N/A Snow Light Snow